STARLINK-31880, 59661

Orbit data source: Space-Track

STARLINK-31880, 59661 is a payload satellite owned by SpaceX/Seattle (US) in LEO that was launched on Mon, 06 May 2024 UTC via an FALCON 9 launch vehicle from the Air Force Eastern Test Range (AFETR). Payload-class satellites include a variety of spacecraft equipped with specific instruments for various scientific and technological missions. These include communications satellites like Starlink; space stations such as the ISS; scientific satellites like the Hubble; Earth observation satellites from companies like Planet Labs, Umbra, and HawkEye 360; GPS; miniature CubeSats for education and research; and military/defense satellites.

Loading next visibility...
Identifier
59661, 2024-084H
Orbit
LEO
Country
Flag of USUS
Related business
Manufacturer
SpaceX/Seattle
Mission
Operational Commercial Communications
Bus & Motor
STARLINK V2M, Unknown motor
Mass
730 kg wet, ~700 kg dry
Launch date (UTC)
2024-05-06 (2 years ago)
Launch vehicle
FALCON 9
Launch site
Air Force Eastern Test Range (AFETR)
Object type
Payload
Rocket body
Debris
Shape & HBR
Box + 2 Pan, 17.7 m
Radar Cross Section
33.884 m², Large (>1 m²)

Expand to show TLE details & history
Last TLE update: 6 hours ago

TLE from 6 hours ago
0 STARLINK-31880
1 59661U 24084H   26073.52040295 -.00000777  00000-0 -18688-4 0  9998
2 59661  43.0016  10.9142 0001332 267.0271  93.0428 15.27592824105157
Epoch: 2026-03-14T12:29Z
TLE epoch observation values (Epoch: 2026-03-14T12:29:22.814Z)
Latitude
-0.00005°
Longitude
11.42868°
Altitude
482.835 km
Speed
7.626 km/s
True Right ascension
00h 43m 39s
True Declination
0° 00' 00"
Sunlit
Object was in daylight at epoch
Visualization orbit readout
Latitude
Unknown
Longitude
Unknown
Altitude
Unknown
Speed
Unknown
Apparent Right ascension
Unknown
Apparent Declination
Unknown
Sunlit
N/A
Visualization observer readout
Local Sidereal Time
22:41:34
Azimuth
Unknown
Elevation
Unknown
Doppler factor
Unknown
Orbital elements
Apogee altitude
485.87 km
Perigee altitude
484.041 km
Semi-major axis
6,863.093 km
Eccentricity
0.00013
Inclination
43.0016°
RAAN
10.9142°
Arg. of periapsis
267.0271°
True anomaly
93.05804°
Mean anomaly
93.0428°
Eccentric anomaly
93.05042°
Mean motion
3.81736 °/min
Orbital period
94.31 mins
BSTAR
-0.000018688
Loading maneuver chart data...
Computing Atmospheric mass density...
Loading historical data...
Loading historical data...
Loading historical data...
Loading historical data...
Loading historical data...
Loading historical data...
Loading historical data...

Documentation

Showing up to 5 results
|